Starlink 3548

operational
NORAD ID: 51864 Int'l Des: 2022-022 Owner: SPXS Country: US Constellation: starlink
LEOCIRCULAR

Starlink 3548について

説明を読み込み中...

リアルタイム位置

3D地球を読み込み中...

次回通過

高度履歴

Altitude vs Time

uPlot chart will show altitude changes over time

軌道要素

1 51864U 22022N 25258.77004464 .00001693 00000-0 12442-3 0 9991
2 51864 53.2172 74.2846 0001535 90.8277 269.2891 15.08853469196758
Epoch: Sep 15, 2025 • Age: 17 hours

現在のステータス

高度 558.5 km
速度 7.58 km/s
衛星直下点 -51.32°S, 167.27°W
打ち上げ日 Mar 3, 2022
運用期間 3.5 years
タイプ internet

技術仕様

分類 Payload
質量 297.00 kg
乾燥質量 275.00 kg
総質量 297.00 kg
長さ 0.20 m
直径 2.80 m
スパン 9.00 m
形状 Box + pan
製造者 SPXS
バスタイプ Starlink
フェーズステータス In Orbit
所有者/国 SPXS/US

大規模コンステレーション

Loading constellations...